GFSNIL_sfc_temp_171.txt.gz
Temp
38 39 38 39 38 38 37 37 38 38 39 39 40 40 40 40 39 38 38 37 37 36
37 37 37 36 37 37 37 39 36 37 37 37 38 38 38 37 37 37 36 35 35 34
35 36 36 36 35 35 35 35 35 35 35 35 36 36 36 35 35 35 35 34 33 32
34 34 35 34 34 34 34 34 34 34 33 33 34 35 34 34 33 32 32 32 32 31
33 33 33 32 33 34 33 33 33 33 32 32 32 33 33 32 32 31 30 30 30 30
32 32 32 32 32 32 32 32 32 32 31 31 32 31 32 32 31 30 30 30 29 29
31 31 31 31 31 31 32 31 31 31 31 31 32 32 32 31 31 30 30 29 29 28
31 31 30 30 30 30 31 31 31 31 31 31 32 32 31 31 29 29 28 29 29 28
30 29 29 29 29 29 29 29 30 30 30 30 32 32 31 30 30 29 28 27 27 28
29 28 28 28 28 27 27 28 27 28 29 29 31 32 31 30 28 27 26 26 26 25
27 26 26 26 26 26 26 26 26 27 28 29 30 31 30 28 27 25 24 24 24 24
25 25 25 24 24 25 25 25 26 27 27 26 28 29 29 28 26 24 23 23 23 23
25 25 24 24 23 25 25 25 26 24 24 24 26 29 28 26 24 20 19 20 20 24
24 24 24 23 24 23 24 23 22 21 21 22 23 27 28 25 21 18 16 16 16 18

GFSNIL_sfc_temp_174.txt.gz
Temp
50 52 51 49 49 48 48 47 46 46 47 47 47 48 48 47 46 45 45 43 43 43
49 48 47 46 47 47 46 45 44 45 45 45 45 45 45 44 43 43 42 41 40 40
46 46 46 46 44 44 44 43 42 42 42 42 43 43 43 41 41 41 40 40 39 39
44 44 44 44 43 42 42 41 41 41 41 40 40 41 41 39 39 38 38 38 37 36
43 42 42 41 41 41 40 40 39 39 39 38 38 39 39 37 38 37 35 35 36 35
41 41 41 40 40 39 39 38 38 38 37 36 36 36 37 36 35 35 34 34 34 34
40 40 40 39 39 38 38 38 37 36 36 36 36 35 35 35 34 34 33 33 33 33
40 39 38 38 37 37 37 37 37 36 35 35 35 35 34 34 33 33 32 32 31 31
38 37 36 36 35 35 35 35 35 34 34 34 35 32 33 33 33 32 31 30 30 30
37 35 35 35 34 33 33 34 34 33 33 33 33 32 32 31 32 31 30 30 29 28
34 33 32 32 32 32 33 32 32 32 33 32 32 31 30 29 30 29 28 28 28 27
33 31 31 30 31 32 31 31 31 31 31 30 30 31 30 30 29 27 25 26 27 26
32 31 30 30 30 30 31 30 30 29 29 29 29 30 30 29 27 24 23 23 24 24
30 29 31 30 30 28 28 28 27 26 26 26 28 29 29 27 26 24 21 21 20 22

GFSNIL_sfc_temp_180.txt.gz
Temp
48 46 44 44 43 42 40 40 42 42 42 42 43 42 41 39 39 37 36 36 36 35
44 44 42 42 42 40 41 43 41 41 40 40 40 41 39 37 36 36 35 35 35 35
42 42 42 42 40 40 40 40 40 39 39 39 39 39 38 36 36 35 35 35 34 34
41 42 41 40 39 39 39 39 39 39 38 38 37 37 36 35 35 34 33 33 33 32
41 41 39 39 38 38 37 38 37 37 37 36 36 35 34 34 33 32 32 32 32 31
39 38 38 37 37 37 36 36 36 36 35 34 34 34 34 33 32 31 31 31 30 30
36 37 37 36 36 35 35 34 34 34 34 33 33 33 33 32 31 30 30 31 29 28
35 37 36 34 33 33 33 33 33 32 32 33 33 35 32 31 30 28 28 28 28 27
34 34 32 32 32 32 31 31 30 30 30 30 35 36 36 33 30 29 28 26 26 26
33 32 31 31 30 30 29 30 29 29 29 29 29 35 35 35 30 29 28 28 27 27
32 31 30 30 29 29 29 28 28 28 29 28 30 34 34 33 29 27 27 27 27 26
30 29 29 29 28 27 28 28 28 29 28 28 28 33 33 31 28 28 27 28 27 26
30 29 27 27 26 26 27 28 29 29 26 27 26 32 32 31 28 24 25 25 25 26
27 27 27 26 25 26 25 27 23 24 23 24 25 29 31 32 27 25 22 22 21 22

GFSNIL_sfc_temp_183.txt.gz
Temp
45 43 42 42 41 40 39 39 40 39 39 39 40 39 38 37 36 35 33 33 33 33
42 42 41 40 40 38 39 41 39 38 38 38 38 38 36 35 34 33 33 32 32 32
40 40 40 39 38 38 38 38 37 37 37 37 37 36 35 33 34 33 32 32 31 32
39 40 39 38 37 37 37 37 36 36 36 36 35 35 34 33 32 31 31 31 31 31
39 38 37 37 36 36 35 36 35 35 35 34 34 33 33 32 31 30 30 30 30 29
37 36 36 35 35 35 34 34 34 34 33 33 32 32 31 31 30 30 29 29 28 27
35 35 35 35 34 33 33 32 32 32 32 32 32 32 31 30 29 29 29 29 27 26
34 35 34 32 32 31 31 31 31 31 31 31 32 33 30 30 28 27 26 26 27 27
33 32 31 31 30 30 30 29 29 29 29 29 34 37 36 32 29 28 27 25 25 26
32 31 30 30 30 30 28 29 28 28 28 28 29 36 36 34 29 28 26 26 27 27
31 31 29 29 29 28 28 27 27 27 28 27 29 35 36 33 28 27 27 27 27 26
31 30 29 28 27 27 27 27 27 29 27 27 28 35 34 31 27 27 26 27 26 25
30 29 28 27 26 25 26 27 28 28 26 27 26 34 34 31 27 24 24 24 25 25
28 27 27 25 24 25 25 26 23 24 23 24 25 29 33 32 26 24 21 21 22 23

GFSNIL_sfc_temp_186.txt.gz
Temp
45 43 42 41 39 38 37 37 38 38 38 38 38 37 36 35 34 33 32 32 32 31
41 41 40 39 38 37 37 39 37 37 36 36 36 36 35 33 32 32 31 31 31 30
39 39 38 38 37 37 36 37 36 35 35 35 35 34 33 32 32 31 31 31 30 30
38 38 38 37 36 36 36 35 35 35 35 34 33 33 32 31 31 30 30 30 30 30
38 37 36 36 35 35 34 34 34 34 34 33 33 32 31 31 30 29 29 29 29 28
37 36 35 35 34 34 33 33 33 33 32 32 32 31 31 30 30 29 29 28 26 26
35 36 35 34 34 33 32 31 31 31 31 31 31 31 31 30 29 28 28 28 27 26
35 35 34 33 32 31 31 31 31 30 30 30 31 32 30 30 28 26 25 26 28 27
34 32 32 31 30 30 30 29 29 29 29 29 33 36 35 31 28 28 27 25 25 26
32 32 31 30 30 29 28 28 28 28 28 28 29 37 37 34 29 27 26 26 26 26
32 31 30 29 29 28 28 28 27 27 28 28 29 37 37 34 28 27 26 26 26 26
32 31 30 29 28 27 27 27 27 28 27 27 28 36 36 32 27 27 26 27 26 25
31 31 30 29 27 25 25 27 27 28 26 26 26 35 35 32 26 23 23 24 24 25
29 30 29 26 24 23 24 25 23 24 23 23 25 29 35 34 26 24 21 21 20 22